Flag for Slovakia Weather past 2 weeks in Košice, Slovakia

Now
48 °F

Clear.


Feels Like: 48 °F
Forecast: 43 / 59 °F
Wind: 2 mph from North

Location: Kosice - Barca

Current Time: Sep 23, 2014 at 3:05:25 AM

Latest Report: Sep 23, 2014 at 2:30 AM


Visibility: 10 mi

Pressure: 29.80 "Hg

Humidity: 94%

Dew point: 46 °F

Location of KošiceLocation

Historic Weather in Košice — Graph

°F

Košice temperature yesterday

Maximum temperature yesterday: 61 °F (at 12:00 AM)
Minimum temperature yesterday: 50 °F (at 11:00 PM)
Average temperature yesterday: 57 °F

Past Weeks' High & Low Weather Summary

 TemperatureHumidityPressure
High81 °F (Sep 9, 4:00 PM)100% (Sep 8, 3:30 AM)30.18 "Hg (Sep 8, 3:30 AM)
Low48 °F (Sep 19, 6:30 AM)39% (Sep 9, 4:30 PM)29.68 "Hg (Sep 22, 7:00 AM)
Average63 °F79%30.00 "Hg
* Reported Sep 8 2:00 AM — Sep 23 2:00 AM, Košice, Weather by CustomWeather, © 2014

Note: Actual official high and low records may vary slightly from our data, if they occured in-between our weather recording intervals... More about our weather records

Advertising

Košice weather history for previous 24 hours

 ConditionsComfort  
Time TempWeatherWind HumidityBarometerVisibility
2:00 AM
Sep 23
50 °FClear.2 mph88%29.80 "Hg10 mi
1:30 AM50 °FClear.7 mph88%29.80 "Hg10 mi
1:00 AM50 °FClear.2 mph88%29.80 "Hg10 mi
12:30 AM50 °FPassing clouds.3 mph94%29.80 "HgN/A
12:00 AM50 °FClear.2 mph94%29.80 "Hg10 mi
11:30 PM
Sep 22
50 °FClear.2 mph94%29.80 "Hg10 mi
11:00 PM50 °FClear.2 mph94%29.80 "Hg10 mi
10:30 PM52 °FClear.2 mph88%29.80 "Hg10 mi
10:00 PM54 °FClear.1 mph77%29.80 "Hg10 mi
9:30 PM54 °FClear.1 mph82%29.80 "Hg10 mi
9:00 PM54 °FPassing clouds.3 mph82%29.80 "HgN/A
8:30 PM54 °FClear.2 mph88%29.80 "Hg10 mi
8:00 PM54 °FClear.2 mph82%29.77 "Hg10 mi
7:30 PM54 °FPartly sunny.6 mph88%29.77 "HgN/A
7:00 PM57 °FSunny.5 mph67%29.77 "Hg10 mi
6:30 PM57 °FSunny.2 mph67%29.77 "Hg10 mi
6:00 PM59 °FSunny.2 mph63%29.74 "Hg10 mi
5:30 PM57 °FSunny.3 mph67%29.74 "Hg10 mi
5:00 PM57 °FSunny.6 mph67%29.74 "Hg10 mi
4:30 PM57 °FSunny.5 mph77%29.74 "Hg10 mi
4:00 PM57 °FSunny.8 mph72%29.74 "Hg10 mi
3:30 PM57 °FSunny.12 mph77%29.74 "Hg10 mi
3:00 PM55 °FSunny.8 mph88%29.71 "Hg10 mi
2:30 PM55 °FMore clouds than sun.8 mph88%29.74 "HgN/A
2:00 PM55 °FLight rain. More clouds than sun.9 mph88%29.74 "HgN/A
1:30 PM54 °FLight rain. More clouds than sun.13 mph88%29.74 "HgN/A
1:00 PM55 °FLight rain. Mostly cloudy.15 mph88%29.71 "HgN/A
12:30 PM57 °FMore clouds than sun.13 mph82%29.71 "HgN/A
12:00 PM55 °FMore clouds than sun.10 mph88%29.71 "HgN/A
11:30 AM55 °FMore clouds than sun.9 mph88%29.71 "HgN/A
11:00 AM55 °FMore clouds than sun.17 mph88%29.71 "HgN/A
10:30 AM55 °FLight rain. More clouds than sun.20 mph88%29.71 "Hg4 mi
10:00 AM61 °FLight rain. More clouds than sun.8 mph94%29.68 "Hg5 mi
9:30 AM61 °FMore clouds than sun.7 mph94%29.68 "HgN/A
9:00 AM61 °FMostly cloudy.7 mph94%29.68 "Hg5 mi
8:30 AM59 °FMostly cloudy.9 mph100%29.68 "Hg5 mi
8:00 AM61 °FMostly cloudy.12 mph94%29.68 "Hg5 mi
7:30 AM59 °FMostly cloudy.9 mph100%29.68 "Hg5 mi
7:00 AM61 °FMostly cloudy.7 mph94%29.68 "Hg4 mi
6:30 AM59 °FFog.7 mph100%29.71 "Hg3 mi
6:00 AM61 °FFog.8 mph94%29.71 "Hg3 mi
5:30 AM61 °FFog.5 mph94%29.71 "Hg3 mi
5:00 AM61 °FFog.6 mph100%29.71 "Hg3 mi
4:30 AM61 °FPassing clouds.5 mph100%29.71 "Hg4 mi
4:00 AM61 °FFog.3 mph100%29.71 "Hg2 mi
3:30 AM61 °FFog.5 mph100%29.74 "Hg1 mi
3:00 AM61 °FFog.3 mph94%29.74 "Hg2 mi
Weather by CustomWeather, © 2014

See weather overviewHow to use our weather pages